Regional Weather Roundup
Issued by NWS

Home | Current Version | Previous Version | Graphics & Text | Print | Product List | Glossary On
Versions: 1 2 3 4 5 6 7 8 9 10 11 12 13 14 15 16 17 18 19 20 21 22 23 24 25 26 27 28 29 30 31 32 33 34 35 36 37 38 39 40 41 42 43 44 45 46 47 48 49 50
000
ASUS43 KFSD 271502
RWRSD

WEATHER ROUNDUP FOR SOUTH DAKOTA
NATIONAL WEATHER SERVICE SIOUX FALLS SD
900 AM CST THU NOV 27 2014

NOTE: "FAIR" INDICATES FEW OR NO CLOUDS BELOW 12,000 FEET WITH NO
SIGNIFICANT WEATHER AND/OR OBSTRUCTIONS TO VISIBILITY.


SDZ001>005-009-010-012>017-271600-
NORTHWEST AND NORTH CENTRAL SOUTH DAKOTA

CITY           SKY/WX    TMP DP  RH WIND       PRES   REMARKS
BUFFALO          N/A     19  16  88 SE13      30.03F WCI   6
FAITH            N/A     14  11  87 SE13      30.19S WCI   0
MOBRIDGE       MOCLDY     4  -2  76 SE14      30.30F WCI -14
$$

SDZ012>016-024>037-041>051-057-063-072>074-271600-
SOUTHWEST AND SOUTH CENTRAL SOUTH DAKOTA

CITY           SKY/WX    TMP DP  RH WIND       PRES   REMARKS
RAPID CTY ARPT CLOUDY    19  17  92 SE12      30.10F WCI   7
PIERRE         CLOUDY    13   8  81 SE17      30.31F WCI  -4
CUSTER         PTCLDY    34  24  67 W8        30.04F WCI  27
ELLSWORTH AFB  CLOUDY    20  18  92 SE12      30.08F WCI   7
PHILIP         PTCLDY    18  11  74 E10       30.22S WCI   6
PINE RIDGE     PTCLDY    28  22  78 S8        30.11F WCI  20
WINNER         CLOUDY    19   9  65 SE16      30.30S WCI   4
$$

SDZ004>011-016>023-039-040-271600-
NORTHEAST SOUTH DAKOTA

CITY           SKY/WX    TMP DP  RH WIND       PRES   REMARKS
ABERDEEN       PTCLDY   -10 -15  78 CALM      30.46F
WATERTOWN      PTSUNNY  -10 -15  78 CALM      30.41S
SISSETON         N/A    -10 -13  86 SW5       30.49S WCI -22
$$

SDZ017-020-022-023-036>040-048>070-271600-
SOUTHEAST SOUTH DAKOTA

CITY           SKY/WX    TMP DP  RH WIND       PRES   REMARKS
SIOUX FALLS    MOSUNNY    0  -7  72 CALM      30.48R
HURON          MOSUNNY   -1  -6  79 S10       30.47S WCI -17
CHAMBERLAIN    CLOUDY    12   4  71 SE12      30.37S WCI  -2
MITCHELL       CLOUDY     4  -5  66 SE12      30.47F WCI -12
YANKTON        CLOUDY     9  -2  61 E8        30.51S WCI  -4
$$

ABBREVIATIONS USED IN REMARKS
   TC - TEMPERATURE IN CELSIUS
  WCI - WIND CHILL INDEX
   HX - HEAT INDEX
  VSB - VISIBILITY




USA.gov is the U.S. government's official web portal to all federal, state and local government web resources and services.